Regional Weather Roundup
Issued by NWS Little Rock, AR

Home | Current Version | Previous Version | Text Only | Print | Product List | Glossary Off
Versions: 1 2 3 4 5 6 7 8 9 10 11 12 13 14 15 16 17 18 19 20 21 22 23 24 25 26 27 28 29 30 31 32 33 34 35 36 37 38 39 40 41 42 43 44 45 46 47 48 49 50

000
ASUS44 KLZK 291505
RWRLZK

WEATHER ROUNDUP FOR ARKANSAS
NATIONAL WEATHER SERVICE LITTLE ROCK AR
1000 AM CDT WED JUL 29 2015

NOTE: "FAIR" INDICATES FEW OR NO CLOUDS BELOW 12,000 FEET WITH NO
SIGNIFICANT WEATHER AND/OR OBSTRUCTIONS TO VISIBILITY.

ARZ001-003-010-029-291600-
NORTHWEST ARKANSAS

CITY           SKY/WX    TMP DP  RH WIND       PRES   REMARKS
FAYETTEVILLE   SUNNY     85  72  65 CALM      30.12S HX  91
FORT SMITH     SUNNY     87  72  60 E3        30.07R HX  93
HARRISON       SUNNY     87  71  58 NW7       30.12S HX  93
BENTONVILLE    SUNNY     86  70  58 W6        30.14R HX  90
ROGERS         SUNNY     86  70  58 NW7       30.13R HX  90
SILOAM SPGS    SUNNY     88  68  51 SW5       30.10F HX  91
HIGHFILL       SUNNY     87  72  60 W7        30.12R HX  93
SPRINGDALE     SUNNY     86  70  58 CALM      30.14S HX  90
$$

ARZ004-005-016-291600-
NORTH CENTRAL ARKANSAS

CITY           SKY/WX    TMP DP  RH WIND       PRES   REMARKS
BATESVILLE     SUNNY     90  77  66 W5        30.06S HX 102
FLIPPIN        PTSUNNY   86  72  62 N3        30.07R HX  92
MTN HOME       MOSUNNY   86  76  71 VRB3      30.08S HX  96
$$

ARZ040-041-291600-
WEST CENTRAL ARKANSAS

CITY           SKY/WX    TMP DP  RH WIND       PRES   REMARKS
MENA           SUNNY     91  70  49 W5        30.11S HX  97
MOUNT IDA      SUNNY     88  72  58 CALM      30.07R HX  94
$$

ARZ009-017-025-026-028-291600-
NORTHEAST ARKANSAS

CITY           SKY/WX    TMP DP  RH WIND       PRES   REMARKS
JONESBORO      MOSUNNY   86  76  71 W7        30.03S HX  96
NEWPORT        SUNNY     91  76  61 W8        30.06R HX 102
WALNUT RIDGE   SUNNY     88  77  70 W8        30.03S HX 100
BLYTHEVILLE    MOSUNNY   90  80  72 NW6       30.03S HX 107
$$

ARZ022-023-033-042-044-291600-
CENTRAL ARKANSAS

CITY           SKY/WX    TMP DP  RH WIND       PRES   REMARKS
LITTLE ROCK    MOSUNNY   93  74  53 CALM      30.06R HX 103
N LITTLE ROCK  MOSUNNY   92  74  55 W5        30.06R HX 101
JACKSONVILLE   SUNNY     93  73  52 W6        30.06R HX 101
SEARCY           N/A     92  77  61 VRB3      30.07R HX 105
HOT SPRINGS    SUNNY     91  72  53 VRB3      30.08R HX  98
RUSSELLVILLE   SUNNY     89  74  60 CALM      30.07R HX  98
CLINTON        LGT RAIN  88  77  70 CALM      30.09S HX 100
$$

ARZ036-291600-
EAST ARKANSAS

CITY           SKY/WX    TMP DP  RH WIND       PRES   REMARKS
WEST MEMPHIS   PTSUNNY   87  80  79 CALM      30.03S HX 103
$$

ARZ050-053-066-070-073-291600-
SOUTHWEST ARKANSAS

CITY           SKY/WX    TMP DP  RH WIND       PRES   REMARKS
ARKADELPHIA    FAIR      93  75  55 VRB5      30.07S HX 104
CAMDEN         SUNNY     90  73  58 CALM      30.06S HX  98
TEXARKANA      SUNNY     90  71  53 NW5       30.07R HX  96
EL DORADO      SUNNY     89  74  60 VRB5      30.07S HX  98
DE QUEEN       SUNNY     87  75  67 VRB3      30.06R HX  96
$$

ARZ056-057-069-291600-
SOUTHEAST ARKANSAS

CITY           SKY/WX    TMP DP  RH WIND       PRES   REMARKS
PINE BLUFF     SUNNY     91  73  55 W6        30.06S HX  99
STUTTGART      SUNNY     90  77  66 W3        30.06R HX 102
MONTICELLO     SUNNY     91  75  59 W8        30.06S HX 101

$$





USA.gov is the U.S. government's official web portal to all federal, state and local government web resources and services.